| time (UTC) | temp C | wind direction | speed KPH | gust KPH | rain 1hr cm | rain 24hr cm | rain mn cm | humidity % | barometer mb |
| 20260902063305 | 18 | 355 | 1.6 | 4.8 | 0.00 | 0.03 | 0.03 | 91 | 1020.0 |
| 20260902062805 | 18 | 334 | 1.6 | 4.8 | 0.00 | 0.03 | 0.03 | 91 | 1020.0 |
| 20260902062306 | 18 | 340 | 1.6 | 3.2 | 0.00 | 0.03 | 0.03 | 91 | 1020.0 |
| 20260902060305 | 18 | 334 | 1.6 | 4.8 | 0.03 | 0.03 | 0.03 | 91 | 1020.0 |
| 20260902053805 | 18 | 13 | 0.0 | 3.2 | 0.03 | 0.03 | 0.03 | 91 | 1020.0 |
| 20260902053305 | 19 | 345 | 1.6 | 3.2 | 0.03 | 0.03 | 0.03 | 91 | 1020.0 |
| 20260902051805 | 19 | 321 | 1.6 | 3.2 | 0.00 | 0.00 | 0.00 | 91 | 1020.0 |
| 20260902051305 | 19 | 347 | 0.0 | 3.2 | 0.00 | 0.00 | 0.00 | 91 | 1020.0 |
| 20260902045306 | 19 | 11 | 1.6 | 4.8 | 0.00 | 0.00 | 0.00 | 91 | 1020.0 |
| 20260902044805 | 19 | 349 | 1.6 | 3.2 | 0.00 | 0.00 | 0.00 | 90 | 1020.0 |
| 20260902044304 | 19 | 348 | 1.6 | 3.2 | 0.00 | 0.00 | 0.00 | 90 | 1020.0 |
| 20260902043805 | 19 | 348 | 1.6 | 3.2 | 0.00 | 0.00 | 0.00 | 90 | 1020.0 |
| 20260902042805 | 19 | 355 | 1.6 | 3.2 | 0.00 | 0.00 | 0.00 | 90 | 1020.0 |
| 20260902042308 | 20 | 8 | 1.6 | 3.2 | 0.00 | 0.00 | 0.00 | 91 | 1020.0 |
| 20260902041305 | 20 | 42 | 0.0 | 1.6 | 0.00 | 0.00 | 0.00 | 91 | 1020.0 |
| 20260902040805 | 20 | 100 | 0.0 | 1.6 | 0.00 | 0.00 | 0.00 | 91 | 1020.0 |
| 20260902035804 | 20 | 41 | 3.2 | 4.8 | 0.00 | 0.00 | 0.00 | 90 | 1020.0 |
| 20260902035305 | 20 | 35 | 1.6 | 4.8 | 0.00 | 0.00 | 0.00 | 90 | 1020.0 |
| 20260902034805 | 20 | 116 | 3.2 | 4.8 | 0.00 | 0.00 | 0.00 | 90 | 1020.0 |
| 20260902034305 | 20 | 83 | 3.2 | 4.8 | 0.00 | 0.00 | 0.00 | 90 | 1020.0 |
| 20260902031804 | 20 | 78 | 3.2 | 4.8 | 0.00 | 0.00 | 0.00 | 90 | 1021.0 |
| 20260902031305 | 20 | 94 | 3.2 | 8.0 | 0.00 | 0.00 | 0.00 | 90 | 1021.0 |
| 20260902030305 | 20 | 33 | 3.2 | 4.8 | 0.00 | 0.00 | 0.00 | 90 | 1021.0 |
| 20260902025805 | 20 | 77 | 3.2 | 4.8 | 0.00 | 0.00 | 0.00 | 90 | 1021.0 |
| 20260902025306 | 20 | 98 | 1.6 | 4.8 | 0.00 | 0.00 | 0.00 | 90 | 1021.0 |
| 20260902024304 | 20 | 35 | 0.0 | 3.2 | 0.00 | 0.00 | 0.00 | 89 | 1021.0 |
| 20260902023804 | 20 | 40 | 1.6 | 4.8 | 0.00 | 0.00 | 0.00 | 89 | 1021.0 |
| 20260902023305 | 20 | 27 | 1.6 | 4.8 | 0.00 | 0.00 | 0.00 | 89 | 1021.0 |
| 20260902022805 | 20 | 15 | 0.0 | 3.2 | 0.00 | 0.00 | 0.00 | 89 | 1021.0 |
| 20260902022306 | 20 | 5 | 0.0 | 1.6 | 0.00 | 0.00 | 0.00 | 89 | 1021.0 |
| 20260902021305 | 20 | 1 | 1.6 | 4.8 | 0.00 | 0.00 | 0.00 | 89 | 1021.0 |
| 20260902020804 | 20 | 25 | 1.6 | 4.8 | 0.00 | 0.00 | 0.00 | 89 | 1021.0 |
| 20260902020305 | 20 | 19 | 1.6 | 3.2 | 0.00 | 0.00 | 0.00 | 89 | 1021.0 |
| 20260902015306 | 20 | 5 | 1.6 | 4.8 | 0.00 | 0.00 | 0.00 | 89 | 1021.0 |
| 20260902014805 | 20 | 317 | 0.0 | 3.2 | 0.00 | 0.00 | 0.00 | 89 | 1021.0 |
| 20260902014305 | 20 | 315 | 1.6 | 3.2 | 0.00 | 0.00 | 0.00 | 88 | 1021.0 |
| 20260902013304 | 20 | 355 | 0.0 | 1.6 | 0.00 | 0.00 | 0.00 | 88 | 1021.0 |
| 20260902012805 | 20 | 11 | 1.6 | 3.2 | 0.00 | 0.00 | 0.00 | 88 | 1021.0 |
| 20260902012309 | 20 | 285 | 0.0 | 1.6 | 0.00 | 0.00 | 0.00 | 88 | 1021.0 |
| 20260902005805 | 20 | 259 | 0.0 | 4.8 | 0.00 | 0.00 | 0.00 | 89 | 1022.0 |
| 20260902005306 | 20 | 313 | 0.0 | 0.0 | 0.00 | 0.00 | 0.00 | 88 | 1022.0 |
| 20260902004805 | 20 | 272 | 0.0 | 1.6 | 0.00 | 0.00 | 0.00 | 88 | 1022.0 |
| 20260902004305 | 20 | 340 | 0.0 | 0.0 | 0.00 | 0.00 | 0.00 | 88 | 1022.0 |
| 20260902003804 | 20 | 340 | 0.0 | 0.0 | 0.00 | 0.00 | 0.00 | 88 | 1022.0 |
| 20260902003305 | 20 | 340 | 0.0 | 0.0 | 0.00 | 0.00 | 0.00 | 88 | 1022.0 |
| 20260902002804 | 20 | 340 | 0.0 | 0.0 | 0.00 | 0.00 | 0.00 | 88 | 1022.0 |
| 20260902002306 | 20 | 355 | 0.0 | 0.0 | 0.00 | 0.00 | 0.00 | 88 | 1022.0 |
| 20260902001805 | 20 | 355 | 0.0 | 0.0 | 0.00 | 0.00 | 0.00 | 88 | 1022.0 |
| 20260902001305 | 20 | 357 | 0.0 | 0.0 | 0.00 | 0.00 | 0.00 | 88 | 1022.0 |
| 20260902000305 | 20 | 31 | 0.0 | 0.0 | 0.00 | 0.00 | 0.00 | 88 | 1022.0 |
| 20260901234805 | 20 | 96 | 0.0 | 0.0 | 0.00 | 0.00 | 0.00 | 88 | 1022.0 |
| 20260901234304 | 20 | 78 | 0.0 | 1.6 | 0.00 | 0.00 | 0.00 | 88 | 1022.0 |
| 20260901231804 | 21 | 40 | 0.0 | 1.6 | 0.00 | 0.00 | 0.00 | 88 | 1022.0 |
| 20260901231305 | 21 | 50 | 0.0 | 1.6 | 0.00 | 0.00 | 0.00 | 88 | 1022.0 |
| 20260901222804 | 21 | 79 | 0.0 | 1.6 | 0.00 | 0.00 | 0.00 | 87 | 1022.0 |
| 20260901222306 | 21 | 57 | 0.0 | 3.2 | 0.00 | 0.00 | 0.00 | 87 | 1022.0 |
| 20260901221304 | 21 | 77 | 1.6 | 3.2 | 0.00 | 0.00 | 0.00 | 86 | 1022.0 |
| 20260901220805 | 21 | 73 | 1.6 | 3.2 | 0.00 | 0.00 | 0.00 | 86 | 1022.0 |
| 20260901215804 | 21 | 68 | 0.0 | 1.6 | 0.00 | 0.00 | 0.00 | 86 | 1022.0 |
| 20260901215306 | 21 | 79 | 0.0 | 3.2 | 0.00 | 0.00 | 0.00 | 86 | 1022.0 |
| 20260901214305 | 21 | 77 | 0.0 | 3.2 | 0.00 | 0.00 | 0.00 | 85 | 1022.0 |
| 20260901213805 | 21 | 86 | 0.0 | 3.2 | 0.00 | 0.00 | 0.00 | 85 | 1022.0 |
| 20260901213304 | 21 | 89 | 0.0 | 4.8 | 0.00 | 0.00 | 0.00 | 85 | 1022.0 |
| 20260901212805 | 21 | 83 | 0.0 | 3.2 | 0.00 | 0.00 | 0.00 | 84 | 1022.0 |
| 20260901212306 | 21 | 86 | 0.0 | 1.6 | 0.00 | 0.00 | 0.00 | 84 | 1022.0 |
| 20260901211805 | 21 | 119 | 0.0 | 1.6 | 0.00 | 0.00 | 0.00 | 84 | 1022.0 |
| 20260901210805 | 21 | 45 | 0.0 | 1.6 | 0.00 | 0.00 | 0.00 | 83 | 1022.0 |
| 20260901210306 | 21 | 70 | 0.0 | 3.2 | 0.00 | 0.00 | 0.00 | 83 | 1022.0 |
| 20260901204304 | 21 | 69 | 0.0 | 3.2 | 0.00 | 0.00 | 0.00 | 82 | 1022.0 |
| 20260901203805 | 21 | 88 | 0.0 | 1.6 | 0.00 | 0.00 | 0.00 | 82 | 1021.0 |
| 20260901202306 | 22 | 88 | 0.0 | 3.2 | 0.00 | 0.00 | 0.00 | 81 | 1021.0 |
| 20260901201804 | 22 | 88 | 0.0 | 3.2 | 0.00 | 0.00 | 0.00 | 81 | 1021.0 |
| 20260901201305 | 22 | 214 | 0.0 | 0.0 | 0.00 | 0.00 | 0.00 | 82 | 1021.0 |
| 20260901200804 | 22 | 214 | 0.0 | 1.6 | 0.00 | 0.00 | 0.00 | 81 | 1021.0 |
| 20260901200305 | 22 | 214 | 0.0 | 3.2 | 0.00 | 0.00 | 0.00 | 81 | 1021.0 |
| 20260901195805 | 22 | 214 | 1.6 | 3.2 | 0.00 | 0.00 | 0.00 | 81 | 1021.0 |
| 20260901195306 | 22 | 214 | 1.6 | 4.8 | 0.00 | 0.00 | 0.00 | 81 | 1021.0 |
| 20260901194805 | 22 | 223 | 1.6 | 4.8 | 0.00 | 0.00 | 0.00 | 80 | 1021.0 |
| 20260901194304 | 22 | 257 | 1.6 | 3.2 | 0.00 | 0.00 | 0.00 | 80 | 1021.0 |
| 20260901192804 | 22 | 267 | 1.6 | 4.8 | 0.00 | 0.00 | 0.00 | 80 | 1021.0 |
| 20260901192306 | 22 | 254 | 3.2 | 4.8 | 0.00 | 0.00 | 0.00 | 80 | 1021.0 |
| 20260901191804 | 22 | 241 | 4.8 | 14.5 | 0.00 | 0.00 | 0.00 | 80 | 1021.0 |
| 20260901190304 | 23 | 254 | 8.0 | 12.9 | 0.00 | 0.00 | 0.00 | 79 | 1021.0 |
| 20260901185804 | 23 | 269 | 6.4 | 11.3 | 0.00 | 0.00 | 0.00 | 79 | 1021.0 |
| 20260901183304 | 23 | 280 | 6.4 | 9.7 | 0.00 | 0.00 | 0.00 | 76 | 1021.0 |
| 20260901182804 | 23 | 266 | 4.8 | 9.7 | 0.00 | 0.00 | 0.00 | 77 | 1021.0 |
| 20260901182305 | 24 | 277 | 3.2 | 8.0 | 0.00 | 0.00 | 0.00 | 77 | 1021.0 |
| 20260901181304 | 24 | 258 | 4.8 | 9.7 | 0.00 | 0.00 | 0.00 | 76 | 1021.0 |
| 20260901180805 | 24 | 241 | 4.8 | 8.0 | 0.00 | 0.00 | 0.00 | 76 | 1021.0 |
| 20260901180304 | 24 | 284 | 3.2 | 8.0 | 0.00 | 0.00 | 0.00 | 77 | 1021.0 |
| 20260901175804 | 24 | 265 | 4.8 | 9.7 | 0.00 | 0.00 | 0.00 | 76 | 1021.0 |
| 20260901175305 | 24 | 259 | 4.8 | 8.0 | 0.00 | 0.00 | 0.00 | 77 | 1021.0 |
| 20260901174805 | 24 | 267 | 4.8 | 9.7 | 0.00 | 0.00 | 0.00 | 77 | 1021.0 |
| 20260901174304 | 24 | 261 | 8.0 | 11.3 | 0.00 | 0.00 | 0.00 | 77 | 1021.0 |
| 20260901173805 | 24 | 206 | 4.8 | 8.0 | 0.00 | 0.00 | 0.00 | 76 | 1021.0 |
| 20260901173305 | 24 | 243 | 8.0 | 11.3 | 0.00 | 0.00 | 0.00 | 76 | 1021.0 |
| 20260901165805 | 24 | 203 | 8.0 | 14.5 | 0.00 | 0.00 | 0.00 | 78 | 1021.0 |
| 20260901165306 | 24 | 223 | 6.4 | 11.3 | 0.00 | 0.00 | 0.00 | 75 | 1021.0 |
| 20260901162306 | 24 | 246 | 8.0 | 11.3 | 0.00 | 0.00 | 0.00 | 76 | 1021.0 |
| 20260901161804 | 24 | 190 | 8.0 | 9.7 | 0.00 | 0.00 | 0.00 | 78 | 1021.0 |
| 20260901155306 | 25 | 170 | 4.8 | 11.3 | 0.00 | 0.00 | 0.00 | 76 | 1022.0 |
| 20260901154804 | 25 | 192 | 8.0 | 12.9 | 0.00 | 0.00 | 0.00 | 76 | 1022.0 |
| 20260901154304 | 25 | 221 | 8.0 | 12.9 | 0.00 | 0.00 | 0.00 | 75 | 1022.0 |
| 20260901151805 | 25 | 137 | 8.0 | 11.3 | 0.00 | 0.00 | 0.00 | 72 | 1022.0 |
| 20260901151305 | 25 | 153 | 8.0 | 14.5 | 0.00 | 0.00 | 0.00 | 71 | 1022.0 |
| 20260901150806 | 25 | 153 | 8.0 | 11.3 | 0.00 | 0.00 | 0.00 | 73 | 1022.0 |
| 20260901144806 | 25 | 211 | 8.0 | 16.1 | 0.00 | 0.00 | 0.00 | 74 | 1022.0 |
| 20260901143305 | 25 | 176 | 8.0 | 14.5 | 0.00 | 0.00 | 0.00 | 75 | 1022.0 |
| 20260901142806 | 25 | 159 | 6.4 | 14.5 | 0.00 | 0.00 | 0.00 | 76 | 1022.0 |
| 20260901142306 | 25 | 238 | 6.4 | 11.3 | 0.00 | 0.00 | 0.00 | 76 | 1022.0 |
| 20260901141806 | 25 | 203 | 8.0 | 11.3 | 0.00 | 0.00 | 0.00 | 77 | 1022.0 |
| 20260901141305 | 25 | 169 | 6.4 | 11.3 | 0.00 | 0.00 | 0.00 | 76 | 1022.0 |
| 20260901140806 | 25 | 253 | 6.4 | 11.3 | 0.00 | 0.00 | 0.00 | 75 | 1022.0 |
| 20260901140305 | 25 | 238 | 4.8 | 11.3 | 0.00 | 0.00 | 0.00 | 74 | 1022.0 |
| 20260901135806 | 25 | 245 | 4.8 | 11.3 | 0.00 | 0.00 | 0.00 | 75 | 1022.0 |
| 20260901134306 | 25 | 224 | 4.8 | 9.7 | 0.00 | 0.00 | 0.00 | 74 | 1022.0 |
| 20260901131805 | 25 | 241 | 8.0 | 14.5 | 0.00 | 0.00 | 0.00 | 76 | 1022.0 |
| 20260901131306 | 25 | 275 | 6.4 | 11.3 | 0.00 | 0.00 | 0.00 | 76 | 1022.0 |
| 20260901130805 | 25 | 243 | 8.0 | 14.5 | 0.00 | 0.00 | 0.00 | 75 | 1022.0 |
| 20260901130306 | 24 | 275 | 8.0 | 11.3 | 0.00 | 0.00 | 0.00 | 78 | 1022.0 |
| 20260901125806 | 25 | 246 | 6.4 | 11.3 | 0.00 | 0.00 | 0.00 | 77 | 1022.0 |
| 20260901124806 | 24 | 243 | 8.0 | 14.5 | 0.00 | 0.00 | 0.00 | 77 | 1022.0 |
| 20260901124307 | 24 | 232 | 8.0 | 14.5 | 0.00 | 0.00 | 0.00 | 76 | 1022.0 |
| 20260901123805 | 24 | 261 | 8.0 | 14.5 | 0.00 | 0.00 | 0.00 | 77 | 1022.0 |
| 20260901123306 | 24 | 262 | 9.7 | 14.5 | 0.00 | 0.00 | 0.00 | 75 | 1022.0 |
| 20260901122805 | 25 | 253 | 6.4 | 12.9 | 0.00 | 0.00 | 0.00 | 75 | 1022.0 |
| 20260901122306 | 24 | 203 | 4.8 | 9.7 | 0.00 | 0.00 | 0.00 | 76 | 1022.0 |
| 20260901120305 | 24 | 266 | 6.4 | 11.3 | 0.00 | 0.00 | 0.00 | 78 | 1022.0 |
| 20260901115805 | 25 | 264 | 6.4 | 12.9 | 0.00 | 0.00 | 0.00 | 78 | 1022.0 |
| 20260901115306 | 24 | 247 | 6.4 | 11.3 | 0.00 | 0.00 | 0.00 | 79 | 1022.0 |
| 20260901114805 | 24 | 246 | 8.0 | 11.3 | 0.00 | 0.00 | 0.00 | 77 | 1022.0 |
| 20260901114305 | 24 | 264 | 4.8 | 9.7 | 0.00 | 0.00 | 0.00 | 77 | 1022.0 |
| 20260901113805 | 24 | 267 | 4.8 | 11.3 | 0.00 | 0.00 | 0.00 | 79 | 1022.0 |
| 20260901113305 | 23 | 262 | 9.7 | 14.5 | 0.00 | 0.00 | 0.00 | 81 | 1022.0 |
| 20260901112806 | 23 | 264 | 6.4 | 14.5 | 0.00 | 0.00 | 0.00 | 83 | 1022.0 |
| 20260901112306 | 23 | 280 | 4.8 | 12.9 | 0.00 | 0.00 | 0.00 | 81 | 1022.0 |
| 20260901105305 | 23 | 244 | 8.0 | 11.3 | 0.00 | 0.00 | 0.00 | 82 | 1022.0 |
| 20260901104806 | 23 | 257 | 8.0 | 12.9 | 0.00 | 0.00 | 0.00 | 81 | 1022.0 |
| 20260901104305 | 23 | 265 | 4.8 | 11.3 | 0.00 | 0.00 | 0.00 | 81 | 1022.0 |
| 20260901103805 | 23 | 253 | 6.4 | 11.3 | 0.00 | 0.00 | 0.00 | 82 | 1022.0 |
| 20260901102306 | 23 | 241 | 4.8 | 11.3 | 0.00 | 0.00 | 0.00 | 84 | 1022.0 |
| 20260901101806 | 23 | 248 | 6.4 | 9.7 | 0.00 | 0.00 | 0.00 | 82 | 1022.0 |
| 20260901095805 | 23 | 234 | 8.0 | 11.3 | 0.00 | 0.00 | 0.00 | 82 | 1022.0 |
| 20260901093805 | 22 | 249 | 4.8 | 8.0 | 0.00 | 0.00 | 0.00 | 83 | 1022.0 |
| 20260901093305 | 22 | 244 | 3.2 | 8.0 | 0.00 | 0.00 | 0.00 | 83 | 1022.0 |
| 20260901092306 | 22 | 238 | 3.2 | 4.8 | 0.00 | 0.00 | 0.00 | 87 | 1022.0 |
| 20260901091805 | 21 | 252 | 3.2 | 4.8 | 0.00 | 0.00 | 0.00 | 87 | 1022.0 |
| 20260901085805 | 22 | 252 | 4.8 | 8.0 | 0.00 | 0.00 | 0.00 | 85 | 1022.0 |
| 20260901085306 | 22 | 218 | 3.2 | 4.8 | 0.00 | 0.00 | 0.00 | 85 | 1022.0 |
| 20260901084805 | 22 | 240 | 4.8 | 4.8 | 0.00 | 0.00 | 0.00 | 85 | 1022.0 |
| 20260901084305 | 22 | 236 | 1.6 | 4.8 | 0.00 | 0.00 | 0.00 | 85 | 1022.0 |
| 20260901083805 | 22 | 40 | 1.6 | 4.8 | 0.00 | 0.00 | 0.00 | 83 | 1022.0 |
| 20260901083305 | 22 | 134 | 1.6 | 4.8 | 0.00 | 0.00 | 0.00 | 83 | 1022.0 |
| 20260901082805 | 22 | 115 | 0.0 | 3.2 | 0.00 | 0.00 | 0.00 | 85 | 1022.0 |
| 20260901075805 | 20 | 75 | 0.0 | 1.6 | 0.00 | 0.00 | 0.00 | 90 | 1022.0 |
| 20260901075307 | 20 | 23 | 0.0 | 1.6 | 0.00 | 0.00 | 0.00 | 90 | 1022.0 |
| 20260901074805 | 20 | 23 | 1.6 | 1.6 | 0.00 | 0.00 | 0.00 | 90 | 1022.0 |
| 20260901074306 | 20 | 25 | 1.6 | 3.2 | 0.00 | 0.00 | 0.00 | 90 | 1022.0 |
| 20260901071805 | 18 | 22 | 1.6 | 3.2 | 0.00 | 0.00 | 0.00 | 89 | 1021.0 |
| 20260901071304 | 18 | 22 | 3.2 | 4.8 | 0.00 | 0.00 | 0.00 | 88 | 1021.0 |